����������;��������(kWh)
2015-06-29 00:00;85
2015-06-29 00:15;73,7
2015-06-29 00:30;75,9
2015-06-29 00:45;74,35
2015-06-29 01:00;76,2
2015-06-29 01:15;76,85
2015-06-29 01:30;72,8
2015-06-29 01:45;73,95
2015-06-29 02:00;75,2
2015-06-29 02:15;71,15
2015-06-29 02:30;72,2
2015-06-29 02:45;74,85
2015-06-29 03:00;77,75
2015-06-29 03:15;74,8
2015-06-29 03:30;72,95
2015-06-29 03:45;71,55
2015-06-29 04:00;71
2015-06-29 04:15;72,7
2015-06-29 04:30;77,85
2015-06-29 04:45;72,1
2015-06-29 05:00;77,9
2015-06-29 05:15;78,7
2015-06-29 05:30;77,95
2015-06-29 05:45;78,6
2015-06-29 06:00;82,05
2015-06-29 06:15;85,75
2015-06-29 06:30;79,55
2015-06-29 06:45;78,75
2015-06-29 07:00;78,35
2015-06-29 07:15;80,65
2015-06-29 07:30;75,8
2015-06-29 07:45;94,55
2015-06-29 08:00;154,15
2015-06-29 08:15;151,6
2015-06-29 08:30;127,85
2015-06-29 08:45;132,1
2015-06-29 09:00;115,65
2015-06-29 09:15;148,15
2015-06-29 09:30;169,35
2015-06-29 09:45;163,9
2015-06-29 10:00;147
2015-06-29 10:15;145,55
2015-06-29 10:30;147,95
2015-06-29 10:45;156,9
2015-06-29 11:00;152,05
2015-06-29 11:15;167,25
2015-06-29 11:30;175,35
2015-06-29 11:45;177
2015-06-29 12:00;163,75
2015-06-29 12:15;170,3
2015-06-29 12:30;172,1
2015-06-29 12:45;180,2
2015-06-29 13:00;195,8
2015-06-29 13:15;187,05
2015-06-29 13:30;182,25
2015-06-29 13:45;177,05
2015-06-29 14:00;186,05
2015-06-29 14:15;180,7
2015-06-29 14:30;173,15
2015-06-29 14:45;175,65
2015-06-29 15:00;178,9
2015-06-29 15:15;181,95
2015-06-29 15:30;166,45
2015-06-29 15:45;168,3
2015-06-29 16:00;172,5
2015-06-29 16:15;158,9
2015-06-29 16:30;161,6
2015-06-29 16:45;150,6
2015-06-29 17:00;143,9
2015-06-29 17:15;141,85
2015-06-29 17:30;142,05
2015-06-29 17:45;142,3
2015-06-29 18:00;136,95
2015-06-29 18:15;131,4
2015-06-29 18:30;126,55
2015-06-29 18:45;135,1
2015-06-29 19:00;133,85
2015-06-29 19:15;120,9
2015-06-29 19:30;108,75
2015-06-29 19:45;107,55
2015-06-29 20:00;106,15
2015-06-29 20:15;104,8
2015-06-29 20:30;98,35
2015-06-29 20:45;92,95
2015-06-29 21:00;92,75
2015-06-29 21:15;96,1
2015-06-29 21:30;91,25
2015-06-29 21:45;93,8
2015-06-29 22:00;88
2015-06-29 22:15;85,4
2015-06-29 22:30;91,05
2015-06-29 22:45;92,1
2015-06-29 23:00;94,55
2015-06-29 23:15;86,6
2015-06-29 23:30;80,7
2015-06-29 23:45;79,2
2015-06-30 00:00;80,15
2015-06-30 00:15;77,9
2015-06-30 00:30;77,4
2015-06-30 00:45;83,3
2015-06-30 01:00;76,65
2015-06-30 01:15;77,85
2015-06-30 01:30;76,4
2015-06-30 01:45;77,4
2015-06-30 02:00;78,2
2015-06-30 02:15;80,5
2015-06-30 02:30;78,1
2015-06-30 02:45;76,35
2015-06-30 03:00;76,15
2015-06-30 03:15;76,95
2015-06-30 03:30;76,1
2015-06-30 03:45;76
2015-06-30 04:00;82,25
2015-06-30 04:15;81,35
2015-06-30 04:30;78,3
2015-06-30 04:45;75,7
2015-06-30 05:00;80,1
2015-06-30 05:15;84,75
2015-06-30 05:30;89,05
2015-06-30 05:45;84,3
2015-06-30 06:00;83,8
2015-06-30 06:15;81,6
2015-06-30 06:30;82,6
2015-06-30 06:45;80,6
2015-06-30 07:00;79,5
2015-06-30 07:15;85,7
2015-06-30 07:30;83,85
2015-06-30 07:45;122,2
2015-06-30 08:00;172,2
2015-06-30 08:15;160,1
2015-06-30 08:30;128,55
2015-06-30 08:45;132,6
2015-06-30 09:00;120,9
2015-06-30 09:15;134,9
2015-06-30 09:30;135
2015-06-30 09:45;130,6
2015-06-30 10:00;149,3
2015-06-30 10:15;141,25
2015-06-30 10:30;161,65
2015-06-30 10:45;158,05
2015-06-30 11:00;179,2
2015-06-30 11:15;188
2015-06-30 11:30;183,75
2015-06-30 11:45;189,6
2015-06-30 12:00;186,4
2015-06-30 12:15;192,5
2015-06-30 12:30;192,45
2015-06-30 12:45;187,85
2015-06-30 13:00;198,2
2015-06-30 13:15;190,15
2015-06-30 13:30;184,5
2015-06-30 13:45;200,75
2015-06-30 14:00;191,2
2015-06-30 14:15;183,55
2015-06-30 14:30;192,4
2015-06-30 14:45;176,05
2015-06-30 15:00;190,95
2015-06-30 15:15;191,65
2015-06-30 15:30;168,6
2015-06-30 15:45;172,85
2015-06-30 16:00;158,35
2015-06-30 16:15;142,2
2015-06-30 16:30;145,45
2015-06-30 16:45;136,25
2015-06-30 17:00;131,5
2015-06-30 17:15;129,05
2015-06-30 17:30;130,45
2015-06-30 17:45;132,95
2015-06-30 18:00;124,7
2015-06-30 18:15;126,75
2015-06-30 18:30;124,2
2015-06-30 18:45;119,35
2015-06-30 19:00;122,7
2015-06-30 19:15;116,75
2015-06-30 19:30;114,6
2015-06-30 19:45;111,8
2015-06-30 20:00;108,7
2015-06-30 20:15;101,35
2015-06-30 20:30;110,15
2015-06-30 20:45;94,95
2015-06-30 21:00;98,95
2015-06-30 21:15;104,3
2015-06-30 21:30;105,35
2015-06-30 21:45;100,15
2015-06-30 22:00;91,4
2015-06-30 22:15;91,7
2015-06-30 22:30;90,65
2015-06-30 22:45;87,6
2015-06-30 23:00;82,8
2015-06-30 23:15;84,5
2015-06-30 23:30;83,7
2015-06-30 23:45;84,75
2015-07-01 00:00;93,1
2015-07-01 00:15;85,9
2015-07-01 00:30;85,25
2015-07-01 00:45;79,65
2015-07-01 01:00;79
2015-07-01 01:15;79,5
2015-07-01 01:30;81,5
2015-07-01 01:45;83,75
2015-07-01 02:00;79,4
2015-07-01 02:15;77,3
2015-07-01 02:30;78,8
2015-07-01 02:45;78,4
2015-07-01 03:00;78,7
2015-07-01 03:15;80,1
2015-07-01 03:30;82,15
2015-07-01 03:45;75,8
2015-07-01 04:00;77,45
2015-07-01 04:15;82,2
2015-07-01 04:30;84,8
2015-07-01 04:45;82,65
2015-07-01 05:00;83,3
2015-07-01 05:15;89,9
2015-07-01 05:30;88
2015-07-01 05:45;81,2
2015-07-01 06:00;79,9
2015-07-01 06:15;79,55
2015-07-01 06:30;76,75
2015-07-01 06:45;72,5
2015-07-01 07:00;79,45
2015-07-01 07:15;79,85
2015-07-01 07:30;81,1
2015-07-01 07:45;116,55
2015-07-01 08:00;167,65
2015-07-01 08:15;157,35
2015-07-01 08:30;122,55
2015-07-01 08:45;144,35
2015-07-01 09:00;156,45
2015-07-01 09:15;149,7
2015-07-01 09:30;164
2015-07-01 09:45;170,65
2015-07-01 10:00;170,1
2015-07-01 10:15;174,25
2015-07-01 10:30;144,5
2015-07-01 10:45;157
2015-07-01 11:00;169,25
2015-07-01 11:15;166,65
2015-07-01 11:30;182,3
2015-07-01 11:45;193,9
2015-07-01 12:00;177,95
2015-07-01 12:15;183,4
2015-07-01 12:30;199,1
2015-07-01 12:45;179,75
2015-07-01 13:00;199,3
2015-07-01 13:15;192
2015-07-01 13:30;207,55
2015-07-01 13:45;198,9
2015-07-01 14:00;185,5
2015-07-01 14:15;183,15
2015-07-01 14:30;193,3
2015-07-01 14:45;190,8
2015-07-01 15:00;178,3
2015-07-01 15:15;189,2
2015-07-01 15:30;176,8
2015-07-01 15:45;166,7
2015-07-01 16:00;172,95
2015-07-01 16:15;140,65
2015-07-01 16:30;140,5
2015-07-01 16:45;134,25
2015-07-01 17:00;133,4
2015-07-01 17:15;129,05
2015-07-01 17:30;123,55
2015-07-01 17:45;122,9
2015-07-01 18:00;121,55
2015-07-01 18:15;122,65
2015-07-01 18:30;123,55
2015-07-01 18:45;118,75
2015-07-01 19:00;120,5
2015-07-01 19:15;116,2
2015-07-01 19:30;108,05
2015-07-01 19:45;112,9
2015-07-01 20:00;100,75
2015-07-01 20:15;99,35
2015-07-01 20:30;97,25
2015-07-01 20:45;88,45
2015-07-01 21:00;93,25
2015-07-01 21:15;90,75
2015-07-01 21:30;90,4
2015-07-01 21:45;90,8
2015-07-01 22:00;88,3
2015-07-01 22:15;85,9
2015-07-01 22:30;91,2
2015-07-01 22:45;84,8
2015-07-01 23:00;83,65
2015-07-01 23:15;85,25
2015-07-01 23:30;86,2
2015-07-01 23:45;86,45
2015-07-02 00:00;96,45
2015-07-02 00:15;80,1
2015-07-02 00:30;79,4
2015-07-02 00:45;77,85
2015-07-02 01:00;79,55
2015-07-02 01:15;79,1
2015-07-02 01:30;84,2
2015-07-02 01:45;78,9
2015-07-02 02:00;77,6
2015-07-02 02:15;78
2015-07-02 02:30;78,95
2015-07-02 02:45;77,65
2015-07-02 03:00;79,05
2015-07-02 03:15;83,3
2015-07-02 03:30;78,55
2015-07-02 03:45;77,25
2015-07-02 04:00;78,15
2015-07-02 04:15;77,4
2015-07-02 04:30;76,1
2015-07-02 04:45;82,75
2015-07-02 05:00;89,95
2015-07-02 05:15;88,6
2015-07-02 05:30;84,75
2015-07-02 05:45;83,4
2015-07-02 06:00;86,25
2015-07-02 06:15;79,3
2015-07-02 06:30;84,05
2015-07-02 06:45;76,85
2015-07-02 07:00;75,3
2015-07-02 07:15;80,3
2015-07-02 07:30;85
2015-07-02 07:45;118,3
2015-07-02 08:00;174,85
2015-07-02 08:15;167,75
2015-07-02 08:30;132,55
2015-07-02 08:45;123,3
2015-07-02 09:00;132,35
2015-07-02 09:15;134,6
2015-07-02 09:30;154,55
2015-07-02 09:45;153
2015-07-02 10:00;147,35
2015-07-02 10:15;144,6
2015-07-02 10:30;162,4
2015-07-02 10:45;160,35
2015-07-02 11:00;174,15
2015-07-02 11:15;176,1
2015-07-02 11:30;191
2015-07-02 11:45;195,6
2015-07-02 12:00;189,4
2015-07-02 12:15;196,9
2015-07-02 12:30;183,5
2015-07-02 12:45;188,2
2015-07-02 13:00;196,2
2015-07-02 13:15;188,5
2015-07-02 13:30;182,4
2015-07-02 13:45;194,1
2015-07-02 14:00;188
2015-07-02 14:15;183,8
2015-07-02 14:30;181,85
2015-07-02 14:45;191,95
2015-07-02 15:00;188,55
2015-07-02 15:15;181,55
2015-07-02 15:30;181,1
2015-07-02 15:45;157,4
2015-07-02 16:00;163,85
2015-07-02 16:15;135,65
2015-07-02 16:30;131,3
2015-07-02 16:45;125,4
2015-07-02 17:00;123,35
2015-07-02 17:15;121,8
2015-07-02 17:30;111,25
2015-07-02 17:45;112,95
2015-07-02 18:00;112,75
2015-07-02 18:15;111,7
2015-07-02 18:30;113,5
2015-07-02 18:45;102,25
2015-07-02 19:00;99,5
2015-07-02 19:15;104,3
2015-07-02 19:30;98,15
2015-07-02 19:45;97,95
2015-07-02 20:00;104,4
2015-07-02 20:15;99,2
2015-07-02 20:30;101,1
2015-07-02 20:45;94,7
2015-07-02 21:00;96,25
2015-07-02 21:15;90,75
2015-07-02 21:30;93,85
2015-07-02 21:45;84,2
2015-07-02 22:00;83,85
2015-07-02 22:15;81,9
2015-07-02 22:30;82,5
2015-07-02 22:45;81,85
2015-07-02 23:00;88,45
2015-07-02 23:15;85,65
2015-07-02 23:30;79,3
2015-07-02 23:45;80,2
2015-07-03 00:00;85
2015-07-03 00:15;77,35
2015-07-03 00:30;79,55
2015-07-03 00:45;86,55
2015-07-03 01:00;84,1
2015-07-03 01:15;84,85
2015-07-03 01:30;83,9
2015-07-03 01:45;77,05
2015-07-03 02:00;76,2
2015-07-03 02:15;84,15
2015-07-03 02:30;78,1
2015-07-03 02:45;77,9
2015-07-03 03:00;78,6
2015-07-03 03:15;75,9
2015-07-03 03:30;77,3
2015-07-03 03:45;76,7
2015-07-03 04:00;76,55
2015-07-03 04:15;78,45
2015-07-03 04:30;76,1
2015-07-03 04:45;78
2015-07-03 05:00;80,45
2015-07-03 05:15;83,3
2015-07-03 05:30;85,25
2015-07-03 05:45;97,35
2015-07-03 06:00;93,35
2015-07-03 06:15;82,55
2015-07-03 06:30;80,35
2015-07-03 06:45;71,4
2015-07-03 07:00;75,6
2015-07-03 07:15;76,8
2015-07-03 07:30;83,55
2015-07-03 07:45;119,7
2015-07-03 08:00;175,8
2015-07-03 08:15;161,45
2015-07-03 08:30;126
2015-07-03 08:45;134,85
2015-07-03 09:00;136,15
2015-07-03 09:15;139,65
2015-07-03 09:30;152,95
2015-07-03 09:45;161,2
2015-07-03 10:00;160,25
2015-07-03 10:15;164,3
2015-07-03 10:30;160,25
2015-07-03 10:45;170,4
2015-07-03 11:00;171,3
2015-07-03 11:15;170,6
2015-07-03 11:30;186,3
2015-07-03 11:45;190,9
2015-07-03 12:00;183,35
2015-07-03 12:15;197,65
2015-07-03 12:30;195,1
2015-07-03 12:45;184,3
2015-07-03 13:00;199,85
2015-07-03 13:15;194,65
2015-07-03 13:30;194,65
2015-07-03 13:45;197,75
2015-07-03 14:00;187,75
2015-07-03 14:15;189,55
2015-07-03 14:30;188
2015-07-03 14:45;174,3
2015-07-03 15:00;185,05
2015-07-03 15:15;184,45
2015-07-03 15:30;162,9
2015-07-03 15:45;167,4
2015-07-03 16:00;160,1
2015-07-03 16:15;150,9
2015-07-03 16:30;137,9
2015-07-03 16:45;137,1
2015-07-03 17:00;128,4
2015-07-03 17:15;121,8
2015-07-03 17:30;123,65
2015-07-03 17:45;123,35
2015-07-03 18:00;118,65
2015-07-03 18:15;117,35
2015-07-03 18:30;113,7
2015-07-03 18:45;109,5
2015-07-03 19:00;116
2015-07-03 19:15;111,35
2015-07-03 19:30;104,05
2015-07-03 19:45;105
2015-07-03 20:00;105,65
2015-07-03 20:15;102,95
2015-07-03 20:30;97,75
2015-07-03 20:45;80,4
2015-07-03 21:00;84,1
2015-07-03 21:15;85,05
2015-07-03 21:30;84,8
2015-07-03 21:45;84,4
2015-07-03 22:00;86,6
2015-07-03 22:15;84,15
2015-07-03 22:30;81,75
2015-07-03 22:45;82,05
2015-07-03 23:00;81,9
2015-07-03 23:15;80,85
2015-07-03 23:30;82,05
2015-07-03 23:45;88,55
2015-07-04 00:00;85,2
2015-07-04 00:15;79,25
2015-07-04 00:30;79,5
2015-07-04 00:45;76,85
2015-07-04 01:00;76,25
2015-07-04 01:15;77,3
2015-07-04 01:30;83,55
2015-07-04 01:45;82,4
2015-07-04 02:00;82,65
2015-07-04 02:15;80,85
2015-07-04 02:30;77,15
2015-07-04 02:45;74,35
2015-07-04 03:00;76,5
2015-07-04 03:15;80,8
2015-07-04 03:30;75,3
2015-07-04 03:45;76,15
2015-07-04 04:00;75,5
2015-07-04 04:15;74,35
2015-07-04 04:30;74,95
2015-07-04 04:45;76,05
2015-07-04 05:00;78,1
2015-07-04 05:15;75,05
2015-07-04 05:30;73,3
2015-07-04 05:45;72,4
2015-07-04 06:00;71,8
2015-07-04 06:15;68,9
2015-07-04 06:30;68,95
2015-07-04 06:45;72,95
2015-07-04 07:00;66,15
2015-07-04 07:15;66,55
2015-07-04 07:30;67,35
2015-07-04 07:45;87,15
2015-07-04 08:00;81,6
2015-07-04 08:15;83,25
2015-07-04 08:30;80
2015-07-04 08:45;76,35
2015-07-04 09:00;79,25
2015-07-04 09:15;76,55
2015-07-04 09:30;77,3
2015-07-04 09:45;84,5
2015-07-04 10:00;79,2
2015-07-04 10:15;78,85
2015-07-04 10:30;80,6
2015-07-04 10:45;78,1
2015-07-04 11:00;82,25
2015-07-04 11:15;85,2
2015-07-04 11:30;82,25
2015-07-04 11:45;80,85
2015-07-04 12:00;82,5
2015-07-04 12:15;84,45
2015-07-04 12:30;89,4
2015-07-04 12:45;86,05
2015-07-04 13:00;82,25
2015-07-04 13:15;81,05
2015-07-04 13:30;84,1
2015-07-04 13:45;81,2
2015-07-04 14:00;90,65
2015-07-04 14:15;87,7
2015-07-04 14:30;89,7
2015-07-04 14:45;91,6
2015-07-04 15:00;84,2
2015-07-04 15:15;87,2
2015-07-04 15:30;86,1
2015-07-04 15:45;87,8
2015-07-04 16:00;89,8
2015-07-04 16:15;86,6
2015-07-04 16:30;87,55
2015-07-04 16:45;87,5
2015-07-04 17:00;89,75
2015-07-04 17:15;90,2
2015-07-04 17:30;89,5
2015-07-04 17:45;89,45
2015-07-04 18:00;89,85
2015-07-04 18:15;91,7
2015-07-04 18:30;89,3
2015-07-04 18:45;85,25
2015-07-04 19:00;87,65
2015-07-04 19:15;89,85
2015-07-04 19:30;94,4
2015-07-04 19:45;96,05
2015-07-04 20:00;89,65
2015-07-04 20:15;85,45
2015-07-04 20:30;85,25
2015-07-04 20:45;79,55
2015-07-04 21:00;79,2
2015-07-04 21:15;80
2015-07-04 21:30;81,3
2015-07-04 21:45;87,25
2015-07-04 22:00;86,25
2015-07-04 22:15;86,2
2015-07-04 22:30;86,15
2015-07-04 22:45;81
2015-07-04 23:00;80,1
2015-07-04 23:15;81,75
2015-07-04 23:30;77,4
2015-07-04 23:45;75,8
2015-07-05 00:00;81,25
2015-07-05 00:15;75,75
2015-07-05 00:30;72,6
2015-07-05 00:45;80,35
2015-07-05 01:00;73,55
2015-07-05 01:15;74,3
2015-07-05 01:30;73,4
2015-07-05 01:45;73,65
2015-07-05 02:00;75,3
2015-07-05 02:15;80,65
2015-07-05 02:30;74
2015-07-05 02:45;73,85
2015-07-05 03:00;74
2015-07-05 03:15;74,05
2015-07-05 03:30;74,05
2015-07-05 03:45;77,4
2015-07-05 04:00;77,25
2015-07-05 04:15;75,8
2015-07-05 04:30;74,25
2015-07-05 04:45;74,05
2015-07-05 05:00;74,25
2015-07-05 05:15;74,7
2015-07-05 05:30;79,3
2015-07-05 05:45;73,95
2015-07-05 06:00;71,65
2015-07-05 06:15;69,35
2015-07-05 06:30;68,3
2015-07-05 06:45;67,85
2015-07-05 07:00;68,5
2015-07-05 07:15;72,4
2015-07-05 07:30;68,65
2015-07-05 07:45;67,05
2015-07-05 08:00;67,95
2015-07-05 08:15;67,25
2015-07-05 08:30;71,75
2015-07-05 08:45;73
2015-07-05 09:00;67,4
2015-07-05 09:15;67,95
2015-07-05 09:30;70
2015-07-05 09:45;70,25
2015-07-05 10:00;78
2015-07-05 10:15;68,75
2015-07-05 10:30;70,8
2015-07-05 10:45;71,9
2015-07-05 11:00;70,45
2015-07-05 11:15;79,95
2015-07-05 11:30;72,05
2015-07-05 11:45;71,7
2015-07-05 12:00;72,7
2015-07-05 12:15;70
2015-07-05 12:30;78,35
2015-07-05 12:45;80,35
2015-07-05 13:00;76,95
2015-07-05 13:15;74,25
2015-07-05 13:30;71,6
2015-07-05 13:45;77,8
2015-07-05 14:00;74,05
2015-07-05 14:15;74
2015-07-05 14:30;71,35
2015-07-05 14:45;75,2
2015-07-05 15:00;79,45
2015-07-05 15:15;75,5
2015-07-05 15:30;71,9
2015-07-05 15:45;76,1
2015-07-05 16:00;76,15
2015-07-05 16:15;85,25
2015-07-05 16:30;78,05
2015-07-05 16:45;76,1
2015-07-05 17:00;77,75
2015-07-05 17:15;78,45
2015-07-05 17:30;86,1
2015-07-05 17:45;74,85
2015-07-05 18:00;79,75
2015-07-05 18:15;77
2015-07-05 18:30;78,9
2015-07-05 18:45;80,7
2015-07-05 19:00;72,75
2015-07-05 19:15;78,7
2015-07-05 19:30;73,1
2015-07-05 19:45;74,15
2015-07-05 20:00;79,6
2015-07-05 20:15;79,2
2015-07-05 20:30;75,05
2015-07-05 20:45;76,1
2015-07-05 21:00;78,25
2015-07-05 21:15;78,85
2015-07-05 21:30;83,8
2015-07-05 21:45;82,4
2015-07-05 22:00;77,95
2015-07-05 22:15;76,85
2015-07-05 22:30;77,45
2015-07-05 22:45;77,7
2015-07-05 23:00;80,5
2015-07-05 23:15;84,3
2015-07-05 23:30;85,1
2015-07-05 23:45;87,35

